TimeCST,TemperatureF,Dew PointF,Humidity,Sea Level PressureIn,VisibilityMPH,Wind Direction,Wind SpeedMPH,Gust SpeedMPH,PrecipitationIn,Events,Conditions,WindDirDegrees,DateUTC
12:15 AM,37.4,27.5,67,30.17,10.0,WNW,12.7,-,N/A,,Clear,290,2013-11-10 06:15:00
12:35 AM,36.5,27.5,70,30.16,10.0,West,10.4,-,N/A,,Clear,280,2013-11-10 06:35:00
12:55 AM,34.7,27.5,75,30.16,10.0,WNW,8.1,-,N/A,,Clear,290,2013-11-10 06:55:00
1:15 AM,33.8,27.5,78,30.17,10.0,West,6.9,-,N/A,,Clear,280,2013-11-10 07:15:00
1:35 AM,32.7,27.7,82,30.18,10.0,West,9.2,-,N/A,,Clear,270,2013-11-10 07:35:00
1:55 AM,33.8,28.2,80,30.18,10.0,West,9.2,-,N/A,,Clear,270,2013-11-10 07:55:00
2:15 AM,33.6,28.4,81,30.19,10.0,West,9.2,-,N/A,,Clear,280,2013-11-10 08:15:00
2:35 AM,32.0,28.0,85,30.20,10.0,West,8.1,-,N/A,,Clear,280,2013-11-10 08:35:00
2:55 AM,33.3,28.4,82,30.20,10.0,WNW,9.2,-,N/A,,Clear,300,2013-11-10 08:55:00
3:15 AM,32.9,28.2,83,30.22,10.0,WNW,6.9,-,N/A,,Clear,290,2013-11-10 09:15:00
3:35 AM,32.0,27.9,85,30.22,10.0,WNW,9.2,-,N/A,,Clear,290,2013-11-10 09:35:00
3:55 AM,32.7,27.9,82,30.23,10.0,WNW,10.4,-,N/A,,Clear,290,2013-11-10 09:55:00
4:15 AM,32.2,27.5,83,30.24,10.0,WNW,10.4,-,N/A,,Clear,290,2013-11-10 10:15:00
4:35 AM,32.4,27.5,82,30.25,10.0,WNW,11.5,-,N/A,,Clear,300,2013-11-10 10:35:00
4:55 AM,32.0,27.1,82,30.26,10.0,WNW,8.1,-,N/A,,Clear,290,2013-11-10 10:55:00
5:15 AM,32.0,27.1,82,30.26,10.0,West,10.4,-,N/A,,Clear,280,2013-11-10 11:15:00
5:35 AM,30.6,26.6,85,30.27,10.0,West,5.8,-,N/A,,Clear,280,2013-11-10 11:35:00
5:55 AM,29.3,26.2,88,30.28,10.0,West,6.9,-,N/A,,Clear,280,2013-11-10 11:55:00
6:15 AM,29.3,26.4,89,30.29,10.0,West,8.1,-,N/A,,Clear,270,2013-11-10 12:15:00
6:35 AM,28.9,26.2,90,30.29,10.0,West,6.9,-,N/A,,Scattered Clouds,280,2013-11-10 12:35:00
6:55 AM,29.7,26.6,88,30.30,10.0,West,8.1,-,N/A,,Scattered Clouds,280,2013-11-10 12:55:00
7:15 AM,30.6,27.3,88,30.31,10.0,West,6.9,-,N/A,,Clear,280,2013-11-10 13:15:00
7:35 AM,31.8,28.0,86,30.32,10.0,WNW,6.9,-,N/A,,Clear,290,2013-11-10 13:35:00
7:55 AM,33.1,28.4,83,30.33,10.0,West,6.9,-,N/A,,Clear,270,2013-11-10 13:55:00
8:15 AM,34.7,29.3,81,30.34,10.0,West,8.1,-,N/A,,Clear,260,2013-11-10 14:15:00
8:35 AM,35.1,29.3,80,30.35,10.0,West,9.2,-,N/A,,Clear,270,2013-11-10 14:35:00
8:55 AM,36.3,29.7,77,30.35,10.0,West,11.5,-,N/A,,Clear,270,2013-11-10 14:55:00
9:15 AM,38.3,30.0,72,30.36,10.0,West,10.4,-,N/A,,Clear,280,2013-11-10 15:15:00
9:35 AM,39.9,29.7,67,30.36,10.0,WNW,11.5,-,N/A,,Clear,290,2013-11-10 15:35:00
9:55 AM,41.0,29.5,64,30.36,10.0,WNW,11.5,-,N/A,,Clear,290,2013-11-10 15:55:00
10:15 AM,41.9,29.3,61,30.36,10.0,NW,9.2,-,N/A,,Clear,310,2013-11-10 16:15:00
10:35 AM,42.6,29.1,59,30.36,10.0,WNW,6.9,-,N/A,,Clear,290,2013-11-10 16:35:00
10:55 AM,43.9,29.5,57,30.35,10.0,WNW,5.8,-,N/A,,Clear,300,2013-11-10 16:55:00
11:15 AM,43.9,28.6,55,30.34,10.0,NW,4.6,-,N/A,,Clear,310,2013-11-10 17:15:00
11:35 AM,44.8,28.9,54,30.34,10.0,NNW,8.1,-,N/A,,Clear,330,2013-11-10 17:35:00
11:55 AM,45.5,29.7,54,30.34,10.0,WNW,6.9,-,N/A,,Clear,290,2013-11-10 17:55:00
12:15 PM,45.3,29.3,54,30.32,10.0,WNW,6.9,-,N/A,,Clear,290,2013-11-10 18:15:00
12:35 PM,46.4,29.7,52,30.33,10.0,West,9.2,-,N/A,,Clear,260,2013-11-10 18:35:00
12:55 PM,46.6,29.7,52,30.32,10.0,West,8.1,-,N/A,,Clear,260,2013-11-10 18:55:00
1:15 PM,46.9,29.5,51,30.32,10.0,West,8.1,-,N/A,,Clear,260,2013-11-10 19:15:00
1:35 PM,46.9,29.8,51,30.31,10.0,West,10.4,-,N/A,,Clear,280,2013-11-10 19:35:00
1:55 PM,47.1,28.6,49,30.31,10.0,WSW,6.9,-,N/A,,Clear,250,2013-11-10 19:55:00
2:15 PM,47.3,29.1,49,30.30,10.0,West,6.9,-,N/A,,Clear,260,2013-11-10 20:15:00
2:35 PM,47.5,29.1,49,30.30,10.0,SW,5.8,-,N/A,,Clear,230,2013-11-10 20:35:00
2:55 PM,47.1,29.1,50,30.29,10.0,WSW,8.1,-,N/A,,Clear,240,2013-11-10 20:55:00
3:15 PM,46.9,29.1,50,30.30,10.0,WSW,11.5,-,N/A,,Clear,240,2013-11-10 21:15:00
3:35 PM,46.2,29.5,52,30.30,10.0,WSW,9.2,-,N/A,,Clear,250,2013-11-10 21:35:00
3:55 PM,45.1,29.1,54,30.30,10.0,WSW,9.2,-,N/A,,Clear,250,2013-11-10 21:55:00
4:15 PM,43.3,30.0,59,30.29,10.0,SW,8.1,-,N/A,,Clear,230,2013-11-10 22:15:00
4:35 PM,39.4,29.3,67,30.29,10.0,SW,5.8,-,N/A,,Clear,220,2013-11-10 22:35:00
4:55 PM,36.0,28.8,75,30.29,10.0,SW,4.6,-,N/A,,Scattered Clouds,230,2013-11-10 22:55:00
5:15 PM,37.4,30.0,75,30.29,10.0,WSW,5.8,-,N/A,,Overcast,240,2013-11-10 23:15:00
5:35 PM,38.5,31.8,77,30.28,10.0,SSW,6.9,-,N/A,,Overcast,210,2013-11-10 23:35:00
5:55 PM,40.3,32.0,72,30.29,10.0,WSW,4.6,-,N/A,,Overcast,250,2013-11-10 23:55:00
6:15 PM,40.6,32.0,71,30.29,10.0,SW,4.6,-,N/A,,Overcast,230,2013-11-11 00:15:00
6:35 PM,40.1,32.0,73,30.28,10.0,SSW,4.6,-,N/A,,Overcast,210,2013-11-11 00:35:00
6:55 PM,39.7,32.0,74,30.28,10.0,SW,4.6,-,N/A,,Overcast,220,2013-11-11 00:55:00
7:15 PM,39.6,32.0,74,30.28,10.0,SSW,3.5,-,N/A,,Overcast,210,2013-11-11 01:15:00
7:35 PM,39.2,32.4,76,30.27,10.0,SSW,4.6,-,N/A,,Overcast,210,2013-11-11 01:35:00
7:55 PM,39.6,32.0,74,30.26,10.0,SSW,6.9,-,N/A,,Overcast,200,2013-11-11 01:55:00
8:15 PM,39.4,32.2,75,30.26,10.0,SSW,5.8,-,N/A,,Overcast,200,2013-11-11 02:15:00
8:35 PM,39.9,32.0,73,30.26,10.0,SSW,4.6,-,N/A,,Overcast,200,2013-11-11 02:35:00
8:55 PM,39.2,32.4,76,30.25,10.0,SSW,6.9,-,N/A,,Overcast,200,2013-11-11 02:55:00
9:15 PM,39.7,32.2,74,30.25,10.0,SSW,8.1,-,N/A,,Overcast,200,2013-11-11 03:15:00
9:35 PM,39.4,32.9,78,30.24,10.0,South,8.1,-,N/A,,Overcast,190,2013-11-11 03:35:00
9:55 PM,39.4,32.9,78,30.24,10.0,South,8.1,-,N/A,,Overcast,190,2013-11-11 03:55:00
10:15 PM,39.7,32.7,76,30.24,10.0,SSW,6.9,-,N/A,,Overcast,200,2013-11-11 04:15:00
10:35 PM,39.6,32.9,77,30.24,10.0,South,5.8,-,N/A,,Overcast,190,2013-11-11 04:35:00
10:55 PM,39.6,32.9,77,30.22,10.0,South,6.9,-,N/A,,Overcast,180,2013-11-11 04:55:00
11:15 PM,39.7,32.9,77,30.22,10.0,South,5.8,-,N/A,,Overcast,190,2013-11-11 05:15:00
11:35 PM,39.6,33.1,78,30.21,10.0,South,5.8,-,N/A,,Overcast,190,2013-11-11 05:35:00
11:55 PM,39.9,32.9,76,30.21,10.0,SSW,5.8,-,N/A,,Overcast,200,2013-11-11 05:55:00